[[{"header":{"parameterUnit":"m.s-1","parameterCategory":2,"la1":30.2991,"la2":30.254,"lo1":-89.0895,"lo2":-89.0444,"dy":0.0017,"dx":0.0017,"nx":28,"ny":28,"refTime":"2025-12-01T09:00:00:Z","depth":"0","parameterNumber":2,"parameterNumberName":"U-component_of_CURRENTS"},"data":[0,0,0,0,0,0,0,0,0,0,0,0,0,0,0,0,0,0,0,0,0,0,0,0,0,0,0,0,0,0,0,0,0,0,0,0,0,0,0,0,0,0,0,0,0,0,0,0,0,0,0,0,0,0,0,0,0,0,-0.1902,-0.1902,0,-0.1911,-0.1911,-0.1911,-0.1887,-0.1886,-0.1886,-0.1885,-0.1875,-0.1875,-0.1876,0,0,0,0,0,0,0,0,0,0,0,0,0,-0.1864,-0.1864,-0.1901,-0.1902,-0.1902,-0.1911,-0.1911,-0.1911,-0.1887,-0.1886,-0.1886,-0.1885,-0.1875,-0.1875,-0.1876,0,0,0,0,0,0,0,0,0,0,0,0,0,-0.1876,-0.1865,-0.1901,-0.1892,-0.1892,-0.1911,-0.1911,-0.1911,-0.1887,-0.1886,-0.1886,-0.1885,-0.1875,-0.1875,-0.1876,-0.1896,0,0,-0.1877,-0.1877,0,0,0,0,0,0,0,0,-0.1875,-0.1877,-0.1894,-0.1893,-0.1893,-0.1898,-0.1894,-0.1906,-0.1888,-0.1887,-0.1885,-0.1884,-0.1883,-0.1883,-0.1884,-0.1896,-0.1895,-0.1877,-0.1877,-0.1878,-0.1878,0,0,0,0,0,0,0,-0.1874,-0.1876,-0.1904,-0.1894,-0.1893,-0.1888,-0.1889,-0.1896,-0.1888,-0.1887,-0.1886,-0.189,-0.1882,-0.1884,-0.1884,-0.1895,-0.1877,-0.1878,-0.1878,-0.1878,-0.1927,-0.1928,0,0,0,0,0,0,-0.1878,-0.1876,-0.1903,-0.1904,-0.1883,-0.189,-0.189,-0.1896,-0.1889,-0.1887,-0.1891,-0.1889,-0.1884,-0.1883,-0.1883,-0.19,-0.1878,-0.1878,-0.1878,-0.1926,-0.1927,-0.1928,0,0,0,0,0,0,-0.1877,-0.188,-0.1903,-0.1891,-0.1894,-0.1892,-0.1898,-0.1897,-0.1896,-0.1892,-0.1889,-0.1891,-0.1883,-0.1883,-0.189,-0.19,-0.1878,-0.1879,-0.1924,-0.1926,-0.1927,-0.1939,0,0,0,0,0,0,-0.1876,-0.188,-0.1885,-0.1892,-0.1895,-0.1915,-0.1899,-0.1898,-0.1901,-0.1898,-0.1892,-0.189,-0.1882,-0.189,-0.1891,-0.19,-0.1879,-0.1923,-0.1925,-0.1927,-0.1937,-0.194,-0.1943,0,0,0,0,0,-0.1874,-0.1886,-0.1885,-0.1888,-0.1902,-0.1916,-0.1917,-0.1911,-0.1902,-0.1906,-0.1901,-0.189,-0.1903,-0.1891,-0.1892,-0.1901,-0.1922,-0.1924,-0.1927,-0.1936,-0.194,-0.1943,0,0,0,0,0,0,-0.1874,-0.1885,-0.1884,-0.1899,-0.1907,-0.1913,-0.1918,-0.1915,-0.1915,-0.1911,-0.1901,-0.19,-0.1912,-0.191,-0.1897,-0.1924,-0.1912,-0.1915,-0.1919,-0.1922,-0.1926,-0.1925,-0.1879,0,0,0,0,0,-0.1878,-0.1886,-0.1897,-0.1909,-0.1914,-0.1917,-0.1921,-0.1919,-0.1921,-0.192,-0.1916,-0.1917,-0.1925,-0.1925,-0.1932,-0.1944,-0.194,-0.1954,-0.1957,-0.1959,-0.1962,-0.197,-0.1974,-0.1936,-0.1936,-0.1936,0,0,-0.1882,-0.1888,-0.1893,-0.1909,-0.1914,-0.1924,-0.1916,-0.1927,-0.1933,-0.192,-0.1925,-0.1929,-0.1933,-0.1946,-0.1951,-0.1942,-0.1968,-0.1962,-0.1964,-0.1965,-0.1973,-0.1976,-0.1979,-0.1937,-0.1937,-0.1937,0,0,-0.1892,-0.19,-0.1909,-0.1916,-0.1927,-0.1932,-0.1936,-0.1944,-0.1943,-0.1954,-0.1949,-0.196,-0.1965,-0.1972,-0.1976,-0.2005,-0.1988,-0.2006,-0.2016,-0.2024,-0.2027,-0.2029,-0.2022,-0.2024,-0.2004,-0.2004,-0.2004,0,-0.1901,-0.1904,-0.1915,-0.1924,-0.1928,-0.1936,-0.1944,-0.1953,-0.196,-0.1964,-0.1956,-0.1977,-0.198,-0.2,-0.2008,-0.2011,-0.2005,-0.1997,-0.2027,-0.2029,-0.2031,-0.2023,-0.2025,-0.2004,-0.2004,-0.2004,-0.2004,0,-0.1914,-0.1915,-0.1922,-0.1933,-0.1945,-0.1952,-0.1967,-0.1977,-0.1978,-0.1983,-0.2001,-0.2009,-0.2017,-0.2025,-0.2023,-0.2045,-0.2031,-0.2031,-0.2012,-0.2035,-0.2026,-0.2027,-0.2006,-0.2005,-0.2005,-0.2005,0,0,-0.1934,-0.1931,-0.1932,-0.1925,-0.1945,-0.1953,-0.1975,-0.199,-0.1997,-0.2011,-0.202,-0.2044,-0.2044,-0.205,-0.2053,-0.2062,-0.2072,-0.205,-0.205,-0.2034,-0.2075,-0.2038,-0.2036,-0.2071,-0.2071,-0.2072,-0.2058,0,-0.1937,-0.1937,-0.1944,-0.1945,-0.1942,-0.1959,-0.1976,-0.1995,-0.2007,-0.2021,-0.204,-0.205,-0.2055,-0.2056,-0.2069,-0.2075,-0.2078,-0.2075,-0.2062,-0.2062,-0.2019,-0.2037,-0.1975,-0.1956,-0.2059,-0.206,-0.206,0,-0.1938,-0.1935,-0.1931,-0.1928,-0.1932,-0.1941,-0.196,-0.1977,-0.2009,-0.2019,-0.204,-0.2052,-0.2076,-0.2072,-0.2092,-0.2086,-0.2082,-0.2084,-0.2083,-0.2046,-0.2028,-0.1952,-0.1954,-0.1853,-0.2062,-0.2062,-0.2062,0,-0.1919,-0.192,-0.1909,-0.191,-0.1922,-0.1926,-0.1938,-0.197,-0.1979,-0.2014,-0.2024,-0.2056,-0.2064,-0.2077,-0.2089,-0.2085,-0.2103,-0.2098,-0.206,-0.2056,-0.2001,-0.1991,-0.1897,-0.2107,-0.2107,-0.2107,-0.2107,0,-0.1905,-0.1895,-0.1893,-0.1886,-0.1874,-0.19,-0.1902,-0.1923,-0.1956,-0.1966,-0.2014,-0.2027,-0.2065,-0.2082,-0.2089,-0.2079,-0.2102,-0.2063,-0.2054,-0.2002,-0.1994,-0.1902,-0.1883,-0.2107,-0.2107,-0.2107,-0.2107,0,-0.1873,-0.1876,-0.1854,-0.1858,-0.1856,-0.1846,-0.1861,-0.1864,-0.1911,-0.1927,-0.1938,-0.1999,-0.2023,-0.2056,-0.2076,-0.2068,-0.2008,-0.2059,-0.199,-0.1973,-0.1832,-0.1818,-0.1759,-0.1689,-0.2006,-0.2005,-0.2004,0,-0.1853,-0.1837,-0.1817,-0.1796,-0.179,-0.1784,-0.1777,-0.1824,-0.1835,-0.1905,-0.1908,-0.1953,-0.1973,-0.1998,-0.201,-0.2013,-0.1959,-0.1937,-0.1924,-0.1812,-0.1791,-0.1786,-0.173,-0.1852,-0.185,-0.1849,-0.1847,0,-0.1807,-0.1797,-0.1776,-0.1724,-0.1702,-0.1686,-0.169,-0.1695,-0.1759,-0.1789,-0.183,-0.1856,-0.1912,-0.1903,-0.1919,-0.191,-0.1839,-0.1902,-0.1807,-0.1681,-0.1649,-0.158,-0.1864,-0.1833,-0.1834,-0.1836,-0.1836,-0.1837,-0.1758,-0.1725,-0.1684,-0.1633,-0.1605,-0.1572,-0.1533,-0.1573,-0.1582,-0.1621,-0.1715,-0.1746,-0.1792,-0.1817,-0.1783,-0.1679,-0.1735,-0.1619,-0.1617,-0.1625,-0.154,-0.1785,-0.1732,-0.1733,-0.1734,-0.1735,-0.1735,0,-0.168,-0.1645,-0.1594,-0.1518,-0.1448,-0.1469,-0.1453,-0.1418,-0.1404,-0.1505,-0.1546,-0.162,-0.1588,-0.1593,-0.1537,-0.142,-0.1375,-0.1346,-0.1309,-0.1269,-0.1492,-0.1463,-0.1324,-0.1324,-0.1324,-0.1324,-0.1324,-0.1324,-0.1632,-0.1557,-0.1529,-0.1379,-0.1323,-0.1211,-0.1181,-0.1166,-0.1208,-0.127,-0.1352,-0.1471,-0.1576,-0.1479,-0.1287,-0.1195,-0.1066,-0.1062,-0.1025,-0.1158,-0.1182,-0.1206,-0.117,-0.0972,-0.0972,-0.0761,-0.0759,-0.0758]},{"header":{"parameterUnit":"m.s-1","parameterCategory":2,"la1":30.2991,"la2":30.254,"lo1":-89.0895,"lo2":-89.0444,"dy":0.0017,"dx":0.0017,"nx":28,"ny":28,"refTime":"2025-12-01T09:00:00:Z","depth":"0","parameterNumber":3,"parameterNumberName":"V-component_of_CURRENTS"},"data":[0,0,0,0,0,0,0,0,0,0,0,0,0,0,0,0,0,0,0,0,0,0,0,0,0,0,0,0,0,0,0,0,0,0,0,0,0,0,0,0,0,0,0,0,0,0,0,0,0,0,0,0,0,0,0,0,0,0,-0.0419,-0.0419,0,-0.0367,-0.0367,-0.0366,-0.0331,-0.0331,-0.0331,-0.033,-0.0266,-0.0264,-0.0263,0,0,0,0,0,0,0,0,0,0,0,0,0,-0.0444,-0.0444,-0.0419,-0.0418,-0.0418,-0.0367,-0.0367,-0.0366,-0.0331,-0.0331,-0.0331,-0.033,-0.0266,-0.0265,-0.0263,0,0,0,0,0,0,0,0,0,0,0,0,0,-0.0417,-0.0444,-0.0419,-0.0395,-0.0392,-0.0367,-0.0367,-0.0366,-0.0331,-0.0331,-0.0331,-0.033,-0.0267,-0.0265,-0.0262,-0.0256,0,0,-0.0256,-0.0255,0,0,0,0,0,0,0,0,-0.0418,-0.0416,-0.0399,-0.0396,-0.0393,-0.0355,-0.0352,-0.0328,-0.0331,-0.0354,-0.033,-0.033,-0.0295,-0.029,-0.0281,-0.0253,-0.025,-0.0255,-0.0254,-0.0253,-0.0252,0,0,0,0,0,0,0,-0.042,-0.0418,-0.0398,-0.0398,-0.0395,-0.0371,-0.0367,-0.0347,-0.0327,-0.0352,-0.0349,-0.0344,-0.0293,-0.0284,-0.028,-0.0249,-0.0255,-0.0253,-0.0252,-0.0251,-0.0219,-0.0219,0,0,0,0,0,0,-0.043,-0.042,-0.04,-0.0397,-0.0405,-0.0371,-0.0367,-0.0368,-0.0327,-0.0321,-0.0344,-0.0343,-0.0288,-0.0282,-0.0277,-0.0274,-0.0253,-0.0251,-0.025,-0.0218,-0.0219,-0.0219,0,0,0,0,0,0,-0.0431,-0.0429,-0.0402,-0.0407,-0.0402,-0.0371,-0.0373,-0.0367,-0.0356,-0.0321,-0.0315,-0.034,-0.0287,-0.028,-0.0264,-0.0271,-0.025,-0.0248,-0.0217,-0.0218,-0.0219,-0.0263,0,0,0,0,0,0,-0.0432,-0.043,-0.0435,-0.0408,-0.0402,-0.0391,-0.0373,-0.0366,-0.0354,-0.0351,-0.0315,-0.0309,-0.0286,-0.0268,-0.0262,-0.0267,-0.0246,-0.0217,-0.0218,-0.0219,-0.0261,-0.0265,-0.0268,0,0,0,0,0,-0.0433,-0.0441,-0.0436,-0.0434,-0.041,-0.0391,-0.0386,-0.0362,-0.0354,-0.0351,-0.0331,-0.031,-0.027,-0.0266,-0.0259,-0.0264,-0.0216,-0.0218,-0.0219,-0.0259,-0.0264,-0.0268,0,0,0,0,0,0,-0.0452,-0.0437,-0.0431,-0.0434,-0.0416,-0.0385,-0.0381,-0.0366,-0.0347,-0.0346,-0.0314,-0.0306,-0.0295,-0.0275,-0.0273,-0.0259,-0.024,-0.024,-0.0274,-0.0278,-0.0282,-0.029,-0.0244,0,0,0,0,0,-0.0461,-0.0466,-0.0443,-0.0446,-0.0439,-0.0412,-0.0402,-0.0386,-0.0365,-0.0356,-0.0332,-0.031,-0.0295,-0.0283,-0.0265,-0.0255,-0.0238,-0.0255,-0.0259,-0.0262,-0.0265,-0.0249,-0.0252,-0.0223,-0.0223,-0.0223,0,0,-0.0473,-0.0463,-0.0467,-0.0451,-0.0436,-0.0431,-0.0405,-0.0392,-0.039,-0.0352,-0.0344,-0.0322,-0.0296,-0.0287,-0.028,-0.027,-0.0262,-0.0264,-0.0267,-0.0268,-0.025,-0.0253,-0.0256,-0.0223,-0.0223,-0.0223,0,0,-0.0491,-0.0486,-0.0494,-0.0481,-0.0461,-0.0446,-0.0444,-0.0416,-0.0406,-0.0394,-0.037,-0.0355,-0.0326,-0.031,-0.0299,-0.0314,-0.0284,-0.0307,-0.0331,-0.0316,-0.0318,-0.032,-0.0303,-0.0303,-0.0308,-0.0308,-0.0308,0,-0.0505,-0.0508,-0.0492,-0.0491,-0.0486,-0.0456,-0.046,-0.0446,-0.0417,-0.0413,-0.0398,-0.0363,-0.0339,-0.0332,-0.0336,-0.0323,-0.0307,-0.0316,-0.0321,-0.0322,-0.0323,-0.0306,-0.0305,-0.031,-0.031,-0.031,-0.031,0,-0.0525,-0.0526,-0.0527,-0.0522,-0.0516,-0.0512,-0.0493,-0.0487,-0.0471,-0.0454,-0.0441,-0.0408,-0.0387,-0.0378,-0.036,-0.0357,-0.0342,-0.0329,-0.031,-0.0329,-0.0309,-0.0307,-0.0314,-0.0313,-0.0312,-0.0312,0,0,-0.0563,-0.0546,-0.0547,-0.0549,-0.0532,-0.053,-0.0532,-0.0523,-0.0527,-0.0497,-0.0497,-0.0467,-0.0445,-0.0431,-0.0405,-0.0389,-0.0382,-0.0364,-0.0362,-0.0349,-0.0346,-0.034,-0.0338,-0.0368,-0.0368,-0.0368,-0.033,0,-0.0583,-0.0587,-0.0576,-0.0588,-0.059,-0.0572,-0.0579,-0.0569,-0.0553,-0.0546,-0.0513,-0.05,-0.0467,-0.0457,-0.0437,-0.0396,-0.0379,-0.0393,-0.0328,-0.0326,-0.032,-0.0337,-0.039,-0.0361,-0.0328,-0.0328,-0.0328,0,-0.0607,-0.0606,-0.0617,-0.062,-0.0622,-0.0627,-0.0634,-0.0633,-0.0617,-0.0605,-0.0584,-0.0554,-0.0527,-0.0496,-0.0436,-0.0446,-0.0402,-0.0367,-0.0364,-0.0343,-0.0318,-0.0336,-0.0359,-0.0338,-0.0325,-0.0325,-0.0325,0,-0.0639,-0.0639,-0.0649,-0.0648,-0.0646,-0.0655,-0.0657,-0.065,-0.0657,-0.0639,-0.064,-0.0599,-0.058,-0.0523,-0.0449,-0.0443,-0.0381,-0.0363,-0.0315,-0.0314,-0.0338,-0.0339,-0.0336,-0.0323,-0.0323,-0.0323,-0.0323,0,-0.0665,-0.0675,-0.0664,-0.067,-0.0692,-0.0683,-0.0706,-0.0701,-0.07,-0.0716,-0.067,-0.0671,-0.0585,-0.0538,-0.0467,-0.0389,-0.0394,-0.0324,-0.0307,-0.0355,-0.0358,-0.0323,-0.0272,-0.0321,-0.0322,-0.0322,-0.0322,0,-0.0693,-0.0685,-0.0697,-0.0699,-0.0705,-0.0719,-0.0738,-0.0756,-0.0748,-0.0766,-0.0764,-0.0723,-0.0664,-0.0575,-0.0482,-0.0416,-0.0303,-0.0309,-0.0371,-0.0362,-0.03,-0.0248,-0.0122,-0.0077,-0.0256,-0.0256,-0.0255,0,-0.0703,-0.071,-0.0718,-0.0732,-0.0732,-0.0753,-0.0775,-0.0778,-0.0798,-0.0801,-0.0816,-0.0766,-0.0745,-0.0604,-0.0489,-0.0372,-0.0291,-0.033,-0.0327,-0.0309,-0.0239,-0.0152,-0.0118,-0.0375,-0.0376,-0.0377,-0.0377,0,-0.0719,-0.072,-0.073,-0.0759,-0.0782,-0.0811,-0.0839,-0.0865,-0.0877,-0.0895,-0.0908,-0.0892,-0.0771,-0.0689,-0.0527,-0.0437,-0.0291,-0.0337,-0.0309,-0.0324,-0.0239,-0.0185,-0.0381,-0.0383,-0.0382,-0.0382,-0.0381,-0.0381,-0.0726,-0.0739,-0.0755,-0.0786,-0.0816,-0.086,-0.0892,-0.0936,-0.0978,-0.1027,-0.0996,-0.101,-0.0875,-0.0668,-0.0556,-0.0395,-0.0301,-0.0353,-0.0289,-0.0202,-0.0167,-0.037,-0.0356,-0.0355,-0.0355,-0.0354,-0.0354,0,-0.0737,-0.0754,-0.0782,-0.082,-0.0858,-0.0869,-0.0929,-0.097,-0.1033,-0.1108,-0.1131,-0.1098,-0.0941,-0.0767,-0.052,-0.0389,-0.0302,-0.0312,-0.0235,-0.0198,-0.04,-0.0421,-0.0433,-0.0433,-0.0433,-0.0433,-0.0433,-0.0433,-0.0744,-0.0769,-0.0786,-0.0844,-0.0873,-0.0931,-0.0965,-0.1036,-0.1102,-0.1221,-0.1277,-0.1307,-0.1106,-0.0632,-0.0378,-0.0315,-0.0185,-0.0156,-0.0051,-0.0254,-0.0254,-0.0255,-0.0266,-0.0245,-0.0245,0.0106,0.0109,0.0112]}],[{"header":{"parameterUnit":"m.s-1","parameterCategory":2,"la1":30.2991,"la2":30.254,"lo1":-89.0895,"lo2":-89.0444,"dy":0.0017,"dx":0.0017,"nx":28,"ny":28,"refTime":"2025-12-01T09:00:00:Z","depth":"2","parameterNumber":2,"parameterNumberName":"U-component_of_CURRENTS"},"data":[0,0,0,0,0,0,0,0,0,0,0,0,0,0,0,0,0,0,0,0,0,0,0,0,0,0,0,0,0,0,0,0,0,0,0,0,0,0,0,0,0,0,0,0,0,0,0,0,0,0,0,0,0,0,0,0,0,0,-0.1896,-0.1897,0,-0.1905,-0.1905,-0.1905,-0.1883,-0.1882,-0.1882,-0.1881,-0.1872,-0.1872,-0.1873,0,0,0,0,0,0,0,0,0,0,0,0,0,-0.1859,-0.186,-0.1896,-0.1897,-0.1897,-0.1905,-0.1905,-0.1905,-0.1883,-0.1882,-0.1881,-0.1881,-0.1872,-0.1872,-0.1873,0,0,0,0,0,0,0,0,0,0,0,0,0,-0.1871,-0.186,-0.1896,-0.1888,-0.1887,-0.1905,-0.1905,-0.1905,-0.1883,-0.1882,-0.1881,-0.188,-0.1872,-0.1872,-0.1873,-0.1892,0,0,-0.1874,-0.1874,0,0,0,0,0,0,0,0,-0.187,-0.1872,-0.1889,-0.1888,-0.1888,-0.1893,-0.1889,-0.1901,-0.1883,-0.1883,-0.1881,-0.188,-0.1879,-0.1879,-0.1881,-0.1892,-0.1892,-0.1874,-0.1874,-0.1875,-0.1875,0,0,0,0,0,0,0,-0.187,-0.1872,-0.1898,-0.1889,-0.1889,-0.1884,-0.1884,-0.1891,-0.1884,-0.1883,-0.1882,-0.1886,-0.1879,-0.188,-0.188,-0.1892,-0.1874,-0.1875,-0.1875,-0.1875,-0.1923,-0.1924,0,0,0,0,0,0,-0.1873,-0.1871,-0.1898,-0.1899,-0.1879,-0.1885,-0.1886,-0.1891,-0.1884,-0.1883,-0.1886,-0.1884,-0.188,-0.188,-0.188,-0.1897,-0.1875,-0.1875,-0.1875,-0.1922,-0.1924,-0.1925,0,0,0,0,0,0,-0.1872,-0.1875,-0.1898,-0.1886,-0.1889,-0.1887,-0.1893,-0.1892,-0.1892,-0.1888,-0.1885,-0.1887,-0.1879,-0.1879,-0.1887,-0.1897,-0.1875,-0.1876,-0.1921,-0.1923,-0.1924,-0.1936,0,0,0,0,0,0,-0.1871,-0.1875,-0.188,-0.1887,-0.189,-0.191,-0.1894,-0.1893,-0.1896,-0.1894,-0.1888,-0.1886,-0.1879,-0.1887,-0.1888,-0.1897,-0.1876,-0.192,-0.1922,-0.1924,-0.1934,-0.1937,-0.194,0,0,0,0,0,-0.187,-0.1881,-0.188,-0.1883,-0.1896,-0.1911,-0.1912,-0.1906,-0.1897,-0.1901,-0.1897,-0.1886,-0.19,-0.1888,-0.1889,-0.1898,-0.1919,-0.1921,-0.1924,-0.1933,-0.1937,-0.194,0,0,0,0,0,0,-0.187,-0.188,-0.1879,-0.1893,-0.1902,-0.1907,-0.1912,-0.191,-0.191,-0.1906,-0.1897,-0.1896,-0.1909,-0.1907,-0.1894,-0.1921,-0.1909,-0.1911,-0.1916,-0.1919,-0.1923,-0.1922,-0.1876,0,0,0,0,0,-0.1873,-0.1881,-0.1892,-0.1903,-0.1909,-0.1911,-0.1916,-0.1914,-0.1917,-0.1915,-0.1911,-0.1913,-0.1921,-0.1921,-0.1928,-0.1941,-0.1937,-0.1951,-0.1954,-0.1956,-0.1958,-0.1967,-0.197,-0.1932,-0.1932,-0.1932,0,0,-0.1877,-0.1883,-0.1888,-0.1903,-0.1908,-0.1919,-0.1911,-0.1922,-0.1928,-0.1916,-0.1921,-0.1925,-0.1929,-0.1942,-0.1948,-0.1939,-0.1965,-0.1959,-0.1961,-0.1962,-0.1969,-0.1973,-0.1976,-0.1934,-0.1934,-0.1933,0,0,-0.1887,-0.1894,-0.1903,-0.1911,-0.1922,-0.1926,-0.193,-0.1938,-0.1938,-0.1949,-0.1944,-0.1955,-0.1962,-0.1968,-0.1972,-0.2001,-0.1984,-0.2003,-0.2012,-0.2021,-0.2023,-0.2026,-0.2019,-0.202,-0.2,-0.2,-0.2,0,-0.1896,-0.1898,-0.1909,-0.1918,-0.1922,-0.193,-0.1938,-0.1948,-0.1955,-0.1959,-0.1952,-0.1973,-0.1976,-0.1996,-0.2004,-0.2007,-0.2001,-0.1994,-0.2023,-0.2026,-0.2028,-0.202,-0.2022,-0.2001,-0.2001,-0.2001,-0.2001,0,-0.1908,-0.1909,-0.1916,-0.1927,-0.1939,-0.1946,-0.1961,-0.1971,-0.1972,-0.1978,-0.1996,-0.2004,-0.2013,-0.2021,-0.2019,-0.2041,-0.2027,-0.2027,-0.2009,-0.2032,-0.2023,-0.2024,-0.2002,-0.2002,-0.2002,-0.2002,0,0,-0.1929,-0.1925,-0.1926,-0.1919,-0.1939,-0.1947,-0.1968,-0.1984,-0.1992,-0.2006,-0.2015,-0.2039,-0.204,-0.2046,-0.2049,-0.2058,-0.2069,-0.2047,-0.2047,-0.2031,-0.2071,-0.2034,-0.2031,-0.2067,-0.2068,-0.2068,-0.2055,0,-0.1932,-0.1931,-0.1938,-0.1939,-0.1936,-0.1953,-0.197,-0.1989,-0.2002,-0.2015,-0.2035,-0.2046,-0.205,-0.2052,-0.2065,-0.2071,-0.2074,-0.2071,-0.2059,-0.2058,-0.2015,-0.2033,-0.1842,-0.1812,-0.2057,-0.2057,-0.2057,0,-0.1933,-0.1929,-0.1925,-0.1922,-0.1926,-0.1935,-0.1955,-0.1972,-0.2003,-0.2014,-0.2036,-0.2047,-0.2072,-0.2068,-0.2088,-0.2082,-0.2078,-0.208,-0.208,-0.2042,-0.2024,-0.1831,-0.1805,-0.2059,-0.2059,-0.2059,-0.2059,0,-0.1914,-0.1915,-0.1903,-0.1904,-0.1916,-0.1921,-0.1933,-0.1965,-0.1975,-0.201,-0.202,-0.2051,-0.206,-0.2073,-0.2085,-0.2082,-0.2099,-0.2094,-0.2056,-0.2052,-0.1887,-0.1868,-0.2104,-0.2104,-0.2104,-0.2104,-0.2104,0,-0.19,-0.1891,-0.1888,-0.1881,-0.1869,-0.1896,-0.1897,-0.1919,-0.1952,-0.1962,-0.201,-0.2023,-0.2061,-0.2078,-0.2085,-0.2075,-0.2099,-0.2059,-0.205,-0.1886,-0.1868,-0.2083,-0.2081,-0.2103,-0.2103,-0.2104,-0.2104,0,-0.187,-0.1872,-0.185,-0.1853,-0.1852,-0.1842,-0.1858,-0.1861,-0.1908,-0.1924,-0.1935,-0.1996,-0.202,-0.2053,-0.2073,-0.2065,-0.2067,-0.2055,-0.1856,-0.1825,-0.201,-0.2009,-0.2004,-0.2003,-0.2002,-0.2001,-0.2,0,-0.185,-0.1834,-0.1813,-0.1792,-0.1787,-0.1781,-0.1774,-0.1821,-0.1833,-0.1902,-0.1905,-0.1949,-0.1965,-0.199,-0.197,-0.1964,-0.2034,-0.1798,-0.1767,-0.201,-0.2002,-0.2003,-0.2003,-0.1543,-0.1539,-0.1535,-0.1532,0,-0.1806,-0.1795,-0.1774,-0.1721,-0.17,-0.1684,-0.1688,-0.1693,-0.1756,-0.1783,-0.1823,-0.1845,-0.187,-0.1784,-0.1787,-0.1761,-0.1786,-0.1725,-0.2016,-0.1614,-0.1579,-0.1571,-0.1585,-0.15,-0.1503,-0.1505,-0.1507,-0.1508,-0.1758,-0.1725,-0.1684,-0.1633,-0.1604,-0.1571,-0.1533,-0.1561,-0.1566,-0.1577,-0.1676,-0.1652,-0.167,-0.1577,-0.1517,-0.1465,-0.1611,-0.1534,-0.1543,-0.1557,-0.1522,-0.1488,-0.1384,-0.1387,-0.1389,-0.1391,-0.1393,0,-0.1678,-0.1647,-0.1596,-0.1519,-0.1447,-0.147,-0.1453,-0.1404,-0.1373,-0.1414,-0.1425,-0.131,-0.1247,-0.1272,-0.1141,-0.1145,-0.1106,-0.1093,-0.1029,-0.1063,-0.1093,-0.1032,-0.0765,-0.0763,-0.0762,-0.076,0,0,-0.1631,-0.1556,-0.1528,-0.1377,-0.1323,-0.1208,-0.1177,-0.1134,-0.113,-0.1094,-0.1076,-0.1158,-0.1225,-0.0987,-0.0945,-0.0833,-0.0932,-0.0779,-0.1281,-0.1238,-0.1265,-0.1346,-0.1291,0,0,0,0,0]},{"header":{"parameterUnit":"m.s-1","parameterCategory":2,"la1":30.2991,"la2":30.254,"lo1":-89.0895,"lo2":-89.0444,"dy":0.0017,"dx":0.0017,"nx":28,"ny":28,"refTime":"2025-12-01T09:00:00:Z","depth":"2","parameterNumber":3,"parameterNumberName":"V-component_of_CURRENTS"},"data":[0,0,0,0,0,0,0,0,0,0,0,0,0,0,0,0,0,0,0,0,0,0,0,0,0,0,0,0,0,0,0,0,0,0,0,0,0,0,0,0,0,0,0,0,0,0,0,0,0,0,0,0,0,0,0,0,0,0,-0.034,-0.0339,0,-0.0289,-0.0289,-0.0288,-0.0255,-0.0255,-0.0255,-0.0255,-0.0192,-0.0191,-0.0189,0,0,0,0,0,0,0,0,0,0,0,0,0,-0.0364,-0.0364,-0.034,-0.0339,-0.0339,-0.0289,-0.0289,-0.0288,-0.0255,-0.0255,-0.0255,-0.0255,-0.0193,-0.0191,-0.0189,0,0,0,0,0,0,0,0,0,0,0,0,0,-0.0337,-0.0364,-0.034,-0.0317,-0.0314,-0.029,-0.0289,-0.0288,-0.0255,-0.0255,-0.0255,-0.0254,-0.0193,-0.0191,-0.0189,-0.0181,0,0,-0.0182,-0.0181,0,0,0,0,0,0,0,0,-0.0339,-0.0336,-0.0321,-0.0318,-0.0315,-0.0278,-0.0274,-0.0252,-0.0255,-0.0277,-0.0255,-0.0254,-0.022,-0.0216,-0.0207,-0.0178,-0.0175,-0.0182,-0.0181,-0.018,-0.0179,0,0,0,0,0,0,0,-0.0341,-0.0338,-0.032,-0.032,-0.0317,-0.0293,-0.029,-0.027,-0.0251,-0.0275,-0.0273,-0.0268,-0.0219,-0.0209,-0.0205,-0.0174,-0.0182,-0.018,-0.0179,-0.0178,-0.0146,-0.0146,0,0,0,0,0,0,-0.035,-0.034,-0.0321,-0.0318,-0.0327,-0.0293,-0.0289,-0.029,-0.0251,-0.0245,-0.0268,-0.0266,-0.0213,-0.0208,-0.0203,-0.0201,-0.018,-0.0178,-0.0176,-0.0145,-0.0146,-0.0146,0,0,0,0,0,0,-0.0351,-0.0349,-0.0323,-0.0328,-0.0323,-0.0294,-0.0295,-0.0289,-0.028,-0.0246,-0.0239,-0.0264,-0.0213,-0.0206,-0.0191,-0.0198,-0.0177,-0.0175,-0.0145,-0.0145,-0.0146,-0.019,0,0,0,0,0,0,-0.0352,-0.035,-0.0356,-0.0329,-0.0323,-0.0312,-0.0295,-0.0289,-0.0278,-0.0275,-0.024,-0.0234,-0.0212,-0.0194,-0.0188,-0.0194,-0.0173,-0.0144,-0.0145,-0.0146,-0.0188,-0.0192,-0.0196,0,0,0,0,0,-0.0353,-0.0361,-0.0357,-0.0354,-0.0332,-0.0313,-0.0308,-0.0285,-0.0278,-0.0276,-0.0256,-0.0235,-0.0196,-0.0193,-0.0186,-0.0191,-0.0144,-0.0145,-0.0146,-0.0186,-0.0191,-0.0196,0,0,0,0,0,0,-0.0373,-0.0358,-0.0352,-0.0355,-0.0338,-0.0307,-0.0304,-0.0289,-0.0271,-0.0271,-0.0239,-0.0232,-0.0221,-0.0202,-0.0199,-0.0185,-0.0167,-0.0167,-0.02,-0.0205,-0.0209,-0.0217,-0.0171,0,0,0,0,0,-0.0382,-0.0386,-0.0364,-0.0367,-0.036,-0.0334,-0.0324,-0.031,-0.0289,-0.0281,-0.0257,-0.0236,-0.0221,-0.021,-0.0191,-0.0182,-0.0164,-0.0182,-0.0186,-0.0189,-0.0192,-0.0176,-0.0179,-0.015,-0.015,-0.015,0,0,-0.0393,-0.0383,-0.0387,-0.0372,-0.0357,-0.0352,-0.0327,-0.0316,-0.0314,-0.0277,-0.0269,-0.0248,-0.0222,-0.0213,-0.0207,-0.0197,-0.0189,-0.0191,-0.0194,-0.0195,-0.0177,-0.018,-0.0182,-0.0151,-0.0151,-0.015,0,0,-0.041,-0.0406,-0.0414,-0.0402,-0.0383,-0.0368,-0.0367,-0.034,-0.0331,-0.0319,-0.0296,-0.0281,-0.0253,-0.0237,-0.0226,-0.024,-0.0211,-0.0234,-0.0258,-0.0243,-0.0245,-0.0247,-0.023,-0.023,-0.0235,-0.0235,-0.0235,0,-0.0425,-0.0428,-0.0412,-0.0411,-0.0407,-0.0379,-0.0383,-0.0369,-0.0342,-0.0338,-0.0323,-0.0289,-0.0266,-0.0258,-0.0263,-0.0249,-0.0234,-0.0243,-0.0248,-0.0249,-0.025,-0.0233,-0.0232,-0.0238,-0.0237,-0.0237,-0.0237,0,-0.0445,-0.0446,-0.0448,-0.0443,-0.0438,-0.0435,-0.0416,-0.041,-0.0396,-0.0379,-0.0366,-0.0334,-0.0314,-0.0305,-0.0286,-0.0284,-0.027,-0.0256,-0.0237,-0.0256,-0.0236,-0.0235,-0.0241,-0.024,-0.0239,-0.0239,0,0,-0.0482,-0.0466,-0.0468,-0.047,-0.0454,-0.0452,-0.0455,-0.0446,-0.045,-0.0421,-0.0422,-0.0392,-0.0371,-0.0357,-0.0331,-0.0315,-0.0308,-0.0291,-0.0289,-0.0276,-0.0273,-0.0268,-0.0266,-0.0295,-0.0295,-0.0295,-0.0257,0,-0.0503,-0.0508,-0.0497,-0.0509,-0.0512,-0.0494,-0.0501,-0.0492,-0.0476,-0.0469,-0.0437,-0.0424,-0.0392,-0.0383,-0.0363,-0.0322,-0.0306,-0.032,-0.0255,-0.0253,-0.0248,-0.0265,-0.019,-0.0151,-0.0256,-0.0255,-0.0255,0,-0.0528,-0.0527,-0.0538,-0.0542,-0.0543,-0.0549,-0.0556,-0.0555,-0.0539,-0.0528,-0.0507,-0.0478,-0.0452,-0.0422,-0.0362,-0.0372,-0.0329,-0.0294,-0.0291,-0.0271,-0.0246,-0.0148,-0.0144,-0.0252,-0.0253,-0.0253,-0.0253,0,-0.056,-0.056,-0.0571,-0.057,-0.0568,-0.0578,-0.058,-0.0573,-0.0579,-0.0562,-0.0563,-0.0523,-0.0505,-0.0448,-0.0375,-0.0369,-0.0308,-0.0289,-0.0244,-0.0242,-0.0158,-0.015,-0.025,-0.025,-0.025,-0.025,-0.025,0,-0.0586,-0.0596,-0.0586,-0.0592,-0.0616,-0.0606,-0.063,-0.0625,-0.0624,-0.0639,-0.0594,-0.0594,-0.051,-0.0463,-0.0393,-0.0317,-0.032,-0.0252,-0.0235,-0.0172,-0.0166,-0.0236,-0.0235,-0.0248,-0.0249,-0.0249,-0.0249,0,-0.0615,-0.0607,-0.0619,-0.0622,-0.0628,-0.0644,-0.0663,-0.068,-0.0673,-0.069,-0.0688,-0.0647,-0.0589,-0.0501,-0.0408,-0.0344,-0.0268,-0.0238,-0.0173,-0.0149,-0.0208,-0.0209,-0.0187,-0.0186,-0.0186,-0.0186,-0.0186,0,-0.0626,-0.0633,-0.0642,-0.0656,-0.0657,-0.0679,-0.0701,-0.0704,-0.0724,-0.0726,-0.0739,-0.069,-0.0663,-0.0524,-0.037,-0.0243,-0.0268,-0.0128,-0.0107,-0.0217,-0.0202,-0.0205,-0.0207,-0.0006,-0.0004,-0.0003,-0.0002,0,-0.0643,-0.0644,-0.0655,-0.0685,-0.0708,-0.0737,-0.0765,-0.0791,-0.0801,-0.0813,-0.0825,-0.0803,-0.0647,-0.0473,-0.0298,-0.0209,-0.0143,-0.0098,-0.0217,-0.0047,-0.0047,-0.0033,-0.004,0.0011,0.0009,0.0009,0.0008,0.0007,-0.0652,-0.0665,-0.0681,-0.0713,-0.0743,-0.0787,-0.0818,-0.0834,-0.0866,-0.0853,-0.0854,-0.0765,-0.061,-0.0317,-0.0177,-0.002,-0.0066,-0.0008,-0.0011,-0.0016,-0.0016,-0.0017,0.0048,0.0047,0.0046,0.0045,0.0044,0,-0.0648,-0.0681,-0.0709,-0.0747,-0.0768,-0.0797,-0.0856,-0.0849,-0.0868,-0.083,-0.0801,-0.0592,-0.0396,-0.0238,0.0035,0.0139,0.017,0.0157,0.0185,0.0172,0.0161,0.017,0.0284,0.0284,0.0285,0.0285,0,0,-0.0652,-0.067,-0.0685,-0.0736,-0.078,-0.0806,-0.0838,-0.0828,-0.0787,-0.0733,-0.0648,-0.0538,-0.0372,-0.0136,0.0024,0.0163,0.014,0.0192,-0.0004,0.0001,-0.0011,0.0069,0.0069,0,0,0,0,0]}],[{"header":{"parameterUnit":"m.s-1","parameterCategory":2,"la1":30.2991,"la2":30.254,"lo1":-89.0895,"lo2":-89.0444,"dy":0.0017,"dx":0.0017,"nx":28,"ny":28,"refTime":"2025-12-01T09:00:00:Z","depth":"4","parameterNumber":2,"parameterNumberName":"U-component_of_CURRENTS"},"data":[0,0,0,0,0,0,0,0,0,0,0,0,0,0,0,0,0,0,0,0,0,0,0,0,0,0,0,0,0,0,0,0,0,0,0,0,0,0,0,0,0,0,0,0,0,0,0,0,0,0,0,0,0,0,0,0,0,0,-0.1305,-0.1306,0,-0.1342,-0.1342,-0.1343,-0.1369,-0.137,-0.137,-0.137,-0.1426,-0.1427,-0.1428,0,0,0,0,0,0,0,0,0,0,0,0,0,-0.1256,-0.1257,-0.1305,-0.1306,-0.1306,-0.1342,-0.1342,-0.1343,-0.1369,-0.137,-0.137,-0.137,-0.1425,-0.1427,-0.1428,0,0,0,0,0,0,0,0,0,0,0,0,0,-0.1283,-0.1257,-0.1305,-0.1324,-0.1327,-0.1342,-0.1342,-0.1343,-0.1369,-0.137,-0.137,-0.1371,-0.1425,-0.1427,-0.1428,-0.143,0,0,-0.1434,-0.1435,0,0,0,0,0,0,0,0,-0.1281,-0.1284,-0.1321,-0.1323,-0.1326,-0.1352,-0.1345,-0.1373,-0.1369,-0.1352,-0.137,-0.1371,-0.1403,-0.1407,-0.1411,-0.1433,-0.1435,-0.1434,-0.1435,-0.1436,-0.1436,0,0,0,0,0,0,0,-0.1279,-0.1283,-0.1319,-0.1322,-0.1324,-0.1331,-0.1335,-0.1351,-0.1374,-0.1354,-0.1356,-0.1361,-0.1404,-0.1409,-0.1413,-0.1436,-0.1434,-0.1436,-0.1437,-0.1437,-0.1526,-0.1527,0,0,0,0,0,0,-0.1276,-0.1281,-0.1318,-0.132,-0.1305,-0.1331,-0.1336,-0.1343,-0.1374,-0.1379,-0.1361,-0.1362,-0.1406,-0.1411,-0.1415,-0.1472,-0.1436,-0.1438,-0.1439,-0.1524,-0.1526,-0.1527,0,0,0,0,0,0,-0.1275,-0.1279,-0.1316,-0.1302,-0.1307,-0.1332,-0.1339,-0.1343,-0.137,-0.1379,-0.1385,-0.1386,-0.1407,-0.1412,-0.1448,-0.1472,-0.1438,-0.144,-0.1523,-0.1525,-0.1527,-0.1552,0,0,0,0,0,0,-0.1273,-0.1278,-0.1292,-0.1302,-0.1308,-0.1339,-0.1339,-0.1343,-0.1371,-0.1374,-0.1402,-0.1406,-0.1407,-0.1446,-0.145,-0.1474,-0.1441,-0.1521,-0.1524,-0.1526,-0.1549,-0.1554,-0.1558,0,0,0,0,0,-0.1271,-0.1285,-0.1293,-0.1298,-0.1323,-0.134,-0.1344,-0.1362,-0.1372,-0.1387,-0.1408,-0.1406,-0.1464,-0.1448,-0.1453,-0.1478,-0.152,-0.1523,-0.1526,-0.1547,-0.1553,-0.1558,0,0,0,0,0,0,-0.1274,-0.129,-0.1298,-0.1317,-0.1334,-0.1345,-0.1364,-0.1375,-0.1402,-0.1412,-0.142,-0.1426,-0.1467,-0.1471,-0.1453,-0.1512,-0.1493,-0.1497,-0.1508,-0.1513,-0.1518,-0.1511,-0.1443,0,0,0,0,0,-0.128,-0.1294,-0.1309,-0.1328,-0.1338,-0.1355,-0.1369,-0.1382,-0.1401,-0.1415,-0.1434,-0.1458,-0.1479,-0.1496,-0.1514,-0.1545,-0.1536,-0.1566,-0.1571,-0.1574,-0.1573,-0.1582,-0.1587,-0.1537,-0.1537,-0.1537,0,0,-0.1284,-0.1297,-0.1305,-0.1329,-0.1345,-0.1363,-0.1365,-0.1393,-0.1413,-0.1417,-0.1459,-0.1476,-0.1492,-0.1526,-0.1545,-0.1535,-0.1584,-0.1578,-0.1581,-0.1578,-0.1586,-0.1591,-0.1595,-0.1539,-0.1538,-0.1538,0,0,-0.1294,-0.1315,-0.1328,-0.1345,-0.1374,-0.1384,-0.1397,-0.1422,-0.1442,-0.1478,-0.1488,-0.1519,-0.1555,-0.1568,-0.1578,-0.1621,-0.1608,-0.1634,-0.1652,-0.1661,-0.1665,-0.1668,-0.1658,-0.166,-0.1636,-0.1636,-0.1636,0,-0.13,-0.1318,-0.1336,-0.1355,-0.1372,-0.1396,-0.1414,-0.1437,-0.1472,-0.1489,-0.1499,-0.1555,-0.1572,-0.1605,-0.1623,-0.1631,-0.1626,-0.1627,-0.1665,-0.1668,-0.1671,-0.166,-0.1662,-0.1638,-0.1637,-0.1637,-0.1637,0,-0.1305,-0.1337,-0.1349,-0.1378,-0.1399,-0.1422,-0.145,-0.148,-0.1509,-0.1526,-0.1575,-0.1598,-0.1627,-0.1644,-0.1648,-0.1682,-0.1669,-0.1668,-0.1646,-0.1677,-0.1664,-0.1665,-0.164,-0.1639,-0.1639,-0.1638,0,0,-0.1276,-0.1339,-0.1347,-0.1371,-0.1415,-0.1429,-0.1471,-0.1505,-0.153,-0.1574,-0.1603,-0.165,-0.1663,-0.1676,-0.1689,-0.1703,-0.1722,-0.1698,-0.1698,-0.1678,-0.1729,-0.1611,-0.1601,-0.1728,-0.1728,-0.1729,-0.1709,0,-0.1277,-0.1318,-0.1348,-0.1393,-0.1416,-0.1455,-0.1486,-0.1524,-0.1559,-0.1594,-0.1629,-0.1663,-0.1675,-0.1694,-0.1712,-0.1722,-0.1728,-0.1726,-0.171,-0.1709,-0.1593,-0.16,-0.1731,-0.171,-0.171,-0.1711,-0.1711,0,-0.1261,-0.1298,-0.1341,-0.1404,-0.1417,-0.1446,-0.1497,-0.1528,-0.1581,-0.1608,-0.1649,-0.1673,-0.1712,-0.1713,-0.174,-0.1739,-0.1737,-0.1739,-0.1738,-0.1619,-0.1594,-0.1675,-0.1713,-0.1713,-0.1713,-0.1713,-0.1712,0,-0.1215,-0.1288,-0.1325,-0.1346,-0.1418,-0.1447,-0.1482,-0.1535,-0.1558,-0.1618,-0.1639,-0.1685,-0.1709,-0.1725,-0.1737,-0.1742,-0.175,-0.1754,-0.1642,-0.1633,-0.1735,-0.1732,-0.1762,-0.1762,-0.1762,-0.1762,-0.1763,0,-0.1184,-0.1216,-0.1314,-0.133,-0.1373,-0.143,-0.1467,-0.1508,-0.156,-0.1577,-0.1643,-0.1654,-0.1715,-0.1727,-0.1735,-0.1682,-0.1746,-0.1636,-0.1618,-0.1746,-0.1744,-0.1735,-0.1732,-0.1762,-0.1762,-0.1762,-0.1762,0,-0.1114,-0.1181,-0.1233,-0.1325,-0.1352,-0.1382,-0.145,-0.1467,-0.1531,-0.1554,-0.1573,-0.1635,-0.1645,-0.1681,-0.17,-0.1657,-0.1635,-0.1601,-0.1722,-0.1714,-0.1512,-0.1512,-0.1465,-0.1461,-0.1457,-0.1454,-0.1451,0,-0.1081,-0.1103,-0.1211,-0.1241,-0.1286,-0.134,-0.1364,-0.144,-0.1454,-0.1523,-0.152,-0.156,-0.1588,-0.1512,-0.1568,-0.1551,-0.1542,-0.1514,-0.1522,-0.1493,-0.1482,-0.1487,-0.149,-0.1445,-0.1444,-0.1443,-0.1442,0,-0.1014,-0.1064,-0.11,-0.1162,-0.1208,-0.1249,-0.1295,-0.1292,-0.1365,-0.144,-0.142,-0.1418,-0.142,-0.1429,-0.142,-0.1416,-0.1524,-0.1475,-0.1483,-0.149,-0.1469,-0.1462,-0.147,-0.1429,-0.1431,-0.1433,-0.1433,0,-0.0961,-0.0967,-0.102,-0.1055,-0.1118,-0.1133,-0.1176,-0.1188,-0.1211,-0.1295,-0.1283,-0.1333,-0.1397,-0.1358,-0.1355,-0.1332,-0.1319,-0.1281,-0.1299,-0.1313,-0.1274,-0.1225,-0.1085,0,0,0,0,0,-0.0902,-0.0876,-0.0904,-0.0943,-0.1004,-0.1038,-0.111,-0.1156,-0.1231,-0.1179,-0.1225,-0.1222,-0.1206,-0.1238,-0.1184,-0.1293,-0.1329,-0.1224,-0.1296,-0.1358,-0.1373,-0.1342,0,0,0,0,0,0,-0.0855,-0.0864,-0.0857,-0.0837,-0.0845,-0.0897,-0.0942,-0.1005,-0.0986,-0.107,-0.1071,-0.1137,-0.1146,-0.1212,-0.1153,-0.1162,-0.1179,-0.1263,-0.126,-0.135,-0.1363,-0.1375,-0.1348,0,0,0,0,0]},{"header":{"parameterUnit":"m.s-1","parameterCategory":2,"la1":30.2991,"la2":30.254,"lo1":-89.0895,"lo2":-89.0444,"dy":0.0017,"dx":0.0017,"nx":28,"ny":28,"refTime":"2025-12-01T09:00:00:Z","depth":"4","parameterNumber":3,"parameterNumberName":"V-component_of_CURRENTS"},"data":[0,0,0,0,0,0,0,0,0,0,0,0,0,0,0,0,0,0,0,0,0,0,0,0,0,0,0,0,0,0,0,0,0,0,0,0,0,0,0,0,0,0,0,0,0,0,0,0,0,0,0,0,0,0,0,0,0,0,0.0039,0.0039,0,0.0062,0.0062,0.0062,0.0084,0.0084,0.0084,0.0084,0.0116,0.0116,0.0117,0,0,0,0,0,0,0,0,0,0,0,0,0,0.0031,0.0031,0.0038,0.0039,0.0039,0.0062,0.0062,0.0062,0.0084,0.0084,0.0084,0.0084,0.0115,0.0116,0.0117,0,0,0,0,0,0,0,0,0,0,0,0,0,0.0042,0.0031,0.0038,0.0052,0.0053,0.0062,0.0062,0.0063,0.0084,0.0084,0.0084,0.0085,0.0115,0.0116,0.0117,0.0116,0,0,0.012,0.012,0,0,0,0,0,0,0,0,0.0042,0.0043,0.005,0.0051,0.0053,0.007,0.0071,0.0081,0.0083,0.0072,0.0084,0.0085,0.0101,0.0103,0.0107,0.0118,0.0119,0.012,0.0121,0.0121,0.0121,0,0,0,0,0,0,0,0.0041,0.0042,0.0048,0.005,0.0052,0.0063,0.0065,0.0073,0.0085,0.0073,0.0075,0.0077,0.0102,0.0106,0.0108,0.0119,0.012,0.0121,0.0121,0.0122,0.0119,0.0118,0,0,0,0,0,0,0.0036,0.0041,0.0047,0.0049,0.0047,0.0063,0.0065,0.0064,0.0085,0.0088,0.0077,0.0078,0.0104,0.0107,0.0109,0.0098,0.0121,0.0122,0.0122,0.0119,0.0118,0.0118,0,0,0,0,0,0,0.0035,0.0036,0.0046,0.0045,0.0047,0.0063,0.0062,0.0065,0.0068,0.0087,0.009,0.0076,0.0104,0.0108,0.011,0.0099,0.0122,0.0123,0.012,0.0119,0.0118,0.0082,0,0,0,0,0,0,0.0035,0.0036,0.0032,0.0045,0.0047,0.0047,0.0061,0.0065,0.0068,0.007,0.0088,0.0091,0.0105,0.0108,0.0111,0.0101,0.0124,0.0121,0.012,0.0118,0.0084,0.008,0.0077,0,0,0,0,0,0.0035,0.0028,0.0032,0.0033,0.0042,0.0047,0.0049,0.0062,0.0068,0.0066,0.0076,0.0091,0.0102,0.0108,0.0111,0.0102,0.0121,0.012,0.0119,0.0086,0.0081,0.0077,0,0,0,0,0,0,0.0025,0.003,0.0034,0.003,0.0036,0.005,0.0049,0.0057,0.0064,0.0064,0.0084,0.0087,0.0085,0.0097,0.0103,0.0097,0.0114,0.0113,0.0088,0.0083,0.008,0.0075,0.0125,0,0,0,0,0,0.0019,0.0015,0.0024,0.0021,0.0021,0.0034,0.0037,0.0044,0.0052,0.0056,0.0068,0.0077,0.0081,0.0085,0.0092,0.0089,0.0106,0.0084,0.008,0.0077,0.0074,0.0087,0.0084,0.0113,0.0113,0.0113,0,0,0.0019,0.0017,0.0018,0.0018,0.0024,0.0019,0.0037,0.0037,0.0032,0.0057,0.0053,0.0065,0.0077,0.0073,0.0073,0.0082,0.0078,0.0075,0.0072,0.0071,0.0085,0.0083,0.008,0.0112,0.0112,0.0112,0,0,0.0009,0.0009,0.0001,-0.0,0.0,0.0006,0.0004,0.0013,0.0015,0.0013,0.0028,0.0032,0.0041,0.0048,0.0052,0.0031,0.0057,0.0032,0.001,0.0022,0.002,0.0018,0.0039,0.004,0.0031,0.003,0.003,0,0.0009,-0.0006,0.0001,-0.0012,-0.0017,-0.0003,-0.0015,-0.0011,-0.0003,-0.0004,0.0006,0.0015,0.0028,0.0023,0.0016,0.0023,0.0037,0.0027,0.0018,0.0016,0.0015,0.0037,0.0038,0.0029,0.0029,0.0029,0.0029,0,-0.0005,-0.0023,-0.0029,-0.0042,-0.0046,-0.0054,-0.0051,-0.0054,-0.0049,-0.0043,-0.0045,-0.0028,-0.0022,-0.0018,-0.0007,-0.0013,0.0003,0.0012,0.003,0.001,0.0035,0.0036,0.0026,0.0026,0.0027,0.0028,0,0,0.0012,-0.003,-0.0033,-0.0055,-0.0065,-0.0071,-0.0084,-0.009,-0.0099,-0.0088,-0.0096,-0.0086,-0.0072,-0.0067,-0.0051,-0.004,-0.0033,-0.002,-0.0019,0.0002,0.0001,0.0016,0.002,-0.0025,-0.0025,-0.0025,0.0022,0,-0.0,-0.0042,-0.0054,-0.009,-0.0112,-0.0113,-0.0127,-0.0131,-0.0129,-0.0133,-0.0114,-0.0115,-0.0092,-0.0091,-0.0077,-0.0045,-0.003,-0.0046,0.0015,0.0017,0.0035,0.0021,-0.0025,0.0024,0.0024,0.0025,0.0025,0,-0.0005,-0.0041,-0.0082,-0.0131,-0.0138,-0.0154,-0.0176,-0.0186,-0.0187,-0.0185,-0.0177,-0.0161,-0.0146,-0.0124,-0.0075,-0.0086,-0.0048,-0.0018,-0.0016,0.0012,0.0035,0.0047,0.0028,0.0028,0.0028,0.0028,0.0027,0,0.0,-0.0057,-0.0097,-0.0111,-0.0158,-0.0177,-0.0193,-0.0202,-0.0215,-0.0216,-0.0222,-0.0197,-0.0188,-0.0141,-0.008,-0.0079,-0.0019,-0.0008,0.0043,0.0045,0.0034,0.0036,0.0025,0.0025,0.0025,0.0025,0.0024,0,-0.0005,-0.0034,-0.0104,-0.0124,-0.0176,-0.0194,-0.0229,-0.024,-0.0254,-0.0271,-0.0249,-0.0251,-0.0192,-0.0151,-0.0092,-0.0018,-0.0027,0.0037,0.0055,0.0019,0.0017,0.0036,0.0037,0.0026,0.0026,0.0026,0.0025,0,0.0017,-0.0028,-0.0082,-0.0151,-0.0176,-0.0208,-0.026,-0.0281,-0.029,-0.0311,-0.0314,-0.0291,-0.0235,-0.0167,-0.0087,-0.0034,0.0036,0.0064,0.0024,0.0039,0.0097,0.0095,0.0125,0.0126,0.0127,0.0127,0.0128,0,0.0023,-0.0004,-0.0097,-0.0141,-0.0175,-0.0229,-0.0265,-0.0296,-0.0316,-0.0332,-0.0339,-0.0303,-0.0275,-0.0151,-0.0075,0.0041,0.0058,0.0096,0.0092,0.0092,0.0106,0.0103,0.01,0.0129,0.0129,0.0129,0.013,0,0.0038,0.0008,-0.0032,-0.0124,-0.0184,-0.0257,-0.0308,-0.033,-0.0358,-0.037,-0.0359,-0.0305,-0.0241,-0.0147,-0.0059,0.0025,0.0072,0.0104,0.0103,0.01,0.0097,0.0109,0.0106,0.0132,0.0132,0.0132,0.0131,0,0.006,0.0046,-0.0008,-0.0081,-0.0175,-0.026,-0.0301,-0.0334,-0.036,-0.0377,-0.0371,-0.0309,-0.0277,-0.0154,-0.0071,0.001,0.0034,0.0063,0.0064,0.0063,0.0031,0.0017,0.004,0,0,0,0,0,0.0086,0.0102,0.0035,-0.0056,-0.0162,-0.0213,-0.0313,-0.0348,-0.0383,-0.0377,-0.0376,-0.0316,-0.0202,-0.0155,-0.0069,-0.0049,0.0054,0.0055,0.0089,0.0146,0.0143,0.0118,0,0,0,0,0,0,0.0116,0.0095,0.0074,-0.0024,-0.0084,-0.0196,-0.0263,-0.0306,-0.0307,-0.0331,-0.0274,-0.0261,-0.0151,-0.0227,-0.0046,-0.0024,0.0012,0.0104,0.0107,0.0148,0.0145,0.0143,0.0116,0,0,0,0,0]}]]